timestamp,wind_dir_avg,wind_spd_max_dir,wind_spd_avg,wind_spd_gust,battery_voltage,lat,long
2018-01-27 00:00:00+00:00,352.0,348.0,4.6,5.29,,47.59359,-54.27349
2018-01-27 00:10:00+00:00,1.0,354.0,6.37,7.29,,47.59359,-54.27349
2018-01-27 00:20:00+00:00,344.0,341.0,6.37,7.69,,47.59359,-54.27349
2018-01-27 00:30:00+00:00,345.0,342.0,6.94,7.71,,47.59359,-54.27349
2018-01-27 00:40:00+00:00,3.0,351.0,5.72,7.4,,47.59359,-54.27349
2018-01-27 00:50:00+00:00,356.0,348.0,5.98,6.82,,47.59359,-54.27349
2018-01-27 01:00:00+00:00,353.0,354.0,7.57,8.63,,47.59359,-54.27349
2018-01-27 01:10:00+00:00,347.0,345.0,6.98,7.74,,47.59359,-54.27349
2018-01-27 01:20:00+00:00,2.0,2.0,7.39,8.41,,47.59359,-54.27349
2018-01-27 01:30:00+00:00,0.0,3.0,7.86,8.46,,47.59359,-54.27349
2018-01-27 01:40:00+00:00,8.0,359.0,7.99,9.04,,47.59359,-54.27349
2018-01-27 01:50:00+00:00,358.0,0.0,8.62,9.29,,47.59359,-54.27349
2018-01-27 02:00:00+00:00,357.0,356.0,8.18,9.01,,47.59359,-54.27349
2018-01-27 02:10:00+00:00,0.0,3.0,8.34,9.14,,47.59359,-54.27349
2018-01-27 02:20:00+00:00,7.0,3.0,7.41,8.23,,47.59359,-54.27349
2018-01-27 02:30:00+00:00,357.0,352.0,7.38,8.14,,47.59359,-54.27349
2018-01-27 02:40:00+00:00,1.0,11.0,8.0,9.12,,47.59359,-54.27349
2018-01-27 02:50:00+00:00,358.0,9.0,7.15,8.68,,47.59359,-54.27349
2018-01-27 03:00:00+00:00,357.0,359.0,6.88,7.95,,47.59359,-54.27349
2018-01-27 03:10:00+00:00,7.0,12.0,7.39,8.97,,47.59359,-54.27349
2018-01-27 03:20:00+00:00,350.0,8.0,6.66,8.77,,47.59359,-54.27349
2018-01-27 03:30:00+00:00,359.0,12.0,7.03,8.42,,47.59359,-54.27349
2018-01-27 03:40:00+00:00,357.0,357.0,6.6,7.61,,47.59359,-54.27349
2018-01-27 03:50:00+00:00,354.0,5.0,5.21,6.13,,47.59359,-54.27349
2018-01-27 04:00:00+00:00,354.0,354.0,5.36,6.15,,47.59359,-54.27349
2018-01-27 04:10:00+00:00,2.0,14.0,7.68,8.58,,47.59359,-54.27349
2018-01-27 04:20:00+00:00,12.0,353.0,5.54,6.48,,47.59359,-54.27349
2018-01-27 04:30:00+00:00,359.0,2.0,4.63,5.54,,47.59359,-54.27349
2018-01-27 04:40:00+00:00,355.0,353.0,4.35,6.28,,47.59359,-54.27349
2018-01-27 04:50:00+00:00,354.0,348.0,4.16,4.71,,47.59359,-54.27349
2018-01-27 05:00:00+00:00,356.0,1.0,6.29,7.55,,47.59359,-54.27349
2018-01-27 05:10:00+00:00,356.0,359.0,5.82,7.01,,47.59359,-54.27349
2018-01-27 05:20:00+00:00,11.0,13.0,5.69,6.24,,47.59359,-54.27349
2018-01-27 05:30:00+00:00,5.0,8.0,6.5,7.55,,47.59359,-54.27349
2018-01-27 05:40:00+00:00,356.0,5.0,5.91,7.01,,47.59359,-54.27349
2018-01-27 05:50:00+00:00,358.0,352.0,6.04,6.7,,47.59359,-54.27349
2018-01-27 06:00:00+00:00,356.0,354.0,5.62,6.54,,47.59359,-54.27349
2018-01-27 06:10:00+00:00,356.0,354.0,6.75,8.26,,47.59359,-54.27349
2018-01-27 06:20:00+00:00,358.0,12.0,7.32,8.69,,47.59359,-54.27349
2018-01-27 06:30:00+00:00,355.0,353.0,8.03,9.83,,47.59359,-54.27349
2018-01-27 06:40:00+00:00,356.0,350.0,8.95,10.04,,47.59359,-54.27349
2018-01-27 06:50:00+00:00,350.0,355.0,9.13,10.11,,47.59359,-54.27349
2018-01-27 07:00:00+00:00,354.0,351.0,7.44,8.7,,47.59359,-54.27349
2018-01-27 07:10:00+00:00,354.0,355.0,8.74,10.12,,47.59359,-54.27349
2018-01-27 07:20:00+00:00,350.0,350.0,10.22,11.37,,47.59359,-54.27349
2018-01-27 07:30:00+00:00,348.0,349.0,9.27,11.09,,47.59359,-54.27349
2018-01-27 07:40:00+00:00,345.0,350.0,8.02,9.27,,47.59359,-54.27349
2018-01-27 07:50:00+00:00,350.0,349.0,9.91,11.06,,47.59359,-54.27349
2018-01-27 08:00:00+00:00,347.0,347.0,9.31,10.54,,47.59359,-54.27349
2018-01-27 08:10:00+00:00,345.0,354.0,10.5,11.73,,47.59359,-54.27349
2018-01-27 08:20:00+00:00,350.0,356.0,9.61,10.88,,47.59359,-54.27349
2018-01-27 08:30:00+00:00,347.0,351.0,10.34,11.59,,47.59359,-54.27349
2018-01-27 08:40:00+00:00,343.0,345.0,9.73,11.49,,47.59359,-54.27349
2018-01-27 08:50:00+00:00,349.0,349.0,11.59,12.94,,47.59359,-54.27349
2018-01-27 09:00:00+00:00,354.0,352.0,11.47,12.64,,47.59359,-54.27349
2018-01-27 09:10:00+00:00,345.0,345.0,11.34,12.95,,47.59359,-54.27349
2018-01-27 09:20:00+00:00,347.0,348.0,11.87,12.69,,47.59359,-54.27349
2018-01-27 09:30:00+00:00,351.0,349.0,10.15,12.07,,47.59359,-54.27349
2018-01-27 09:40:00+00:00,344.0,350.0,10.51,11.99,,47.59359,-54.27349
2018-01-27 09:50:00+00:00,351.0,348.0,10.59,11.73,,47.59359,-54.27349
2018-01-27 10:00:00+00:00,348.0,353.0,8.51,11.72,,47.59359,-54.27349
2018-01-27 10:10:00+00:00,350.0,355.0,3.89,7.95,,47.59359,-54.27349
2018-01-27 10:20:00+00:00,348.0,350.0,4.14,7.67,,47.59359,-54.27349
2018-01-27 10:30:00+00:00,329.0,332.0,4.79,7.94,,47.59359,-54.27349
2018-01-27 10:40:00+00:00,344.0,350.0,3.75,5.39,,47.59359,-54.27349
2018-01-27 10:50:00+00:00,357.0,1.0,5.04,9.65,,47.59359,-54.27349
2018-01-27 11:00:00+00:00,348.0,3.0,4.44,7.27,,47.59359,-54.27349
2018-01-27 11:10:00+00:00,329.0,332.0,4.38,7.8,,47.59359,-54.27349
2018-01-27 11:20:00+00:00,336.0,354.0,4.59,8.73,,47.59359,-54.27349
2018-01-27 11:30:00+00:00,346.0,354.0,6.36,9.19,,47.59359,-54.27349
2018-01-27 11:40:00+00:00,337.0,338.0,7.71,9.5,,47.59359,-54.27349
2018-01-27 11:50:00+00:00,328.0,329.0,7.8,10.65,,47.59359,-54.27349
2018-01-27 12:00:00+00:00,339.0,343.0,8.47,11.03,,47.59359,-54.27349
2018-01-27 12:10:00+00:00,341.0,344.0,8.91,10.95,,47.59359,-54.27349
2018-01-27 12:20:00+00:00,347.0,346.0,6.84,8.95,,47.59359,-54.27349
2018-01-27 12:30:00+00:00,5.0,340.0,4.86,7.1,,47.59359,-54.27349
2018-01-27 12:40:00+00:00,347.0,341.0,6.28,7.8,,47.59359,-54.27349
2018-01-27 12:50:00+00:00,343.0,343.0,6.39,7.47,,47.59359,-54.27349
2018-01-27 13:00:00+00:00,6.0,24.0,5.2,6.2,,47.59359,-54.27349
2018-01-27 13:10:00+00:00,357.0,356.0,7.57,8.64,,47.59359,-54.27349
2018-01-27 13:20:00+00:00,10.0,14.0,7.45,8.52,,47.59359,-54.27349
2018-01-27 13:30:00+00:00,346.0,343.0,7.39,9.0,,47.59359,-54.27349
2018-01-27 13:40:00+00:00,6.0,0.0,5.89,6.82,,47.59359,-54.27349
2018-01-27 13:50:00+00:00,359.0,354.0,7.11,8.98,,47.59359,-54.27349
2018-01-27 14:00:00+00:00,1.0,2.0,5.06,6.21,,47.59359,-54.27349
2018-01-27 14:10:00+00:00,355.0,356.0,4.91,6.29,,47.59359,-54.27349
2018-01-27 14:20:00+00:00,350.0,359.0,4.26,5.96,,47.59359,-54.27349
2018-01-27 14:30:00+00:00,321.0,323.0,4.44,5.32,,47.59359,-54.27349
2018-01-27 14:40:00+00:00,343.0,340.0,4.88,5.9,,47.59359,-54.27349
2018-01-27 14:50:00+00:00,323.0,328.0,5.9,8.16,,47.59359,-54.27349
2018-01-27 15:00:00+00:00,333.0,329.0,6.17,6.79,,47.59359,-54.27349
2018-01-27 15:10:00+00:00,330.0,321.0,4.34,5.04,,47.59359,-54.27349
2018-01-27 15:20:00+00:00,348.0,339.0,4.4,5.15,,47.59359,-54.27349
2018-01-27 15:30:00+00:00,339.0,354.0,4.3,5.71,,47.59359,-54.27349
2018-01-27 15:40:00+00:00,331.0,338.0,4.87,5.98,,47.59359,-54.27349
2018-01-27 15:50:00+00:00,323.0,323.0,4.03,4.83,,47.59359,-54.27349
2018-01-27 16:00:00+00:00,305.0,308.0,4.35,5.01,,47.59359,-54.27349
2018-01-27 16:10:00+00:00,308.0,311.0,5.54,6.21,,47.59359,-54.27349
2018-01-27 16:20:00+00:00,292.0,286.0,3.95,5.02,,47.59359,-54.27349
2018-01-27 16:30:00+00:00,306.0,306.0,4.12,4.93,,47.59359,-54.27349
2018-01-27 16:40:00+00:00,319.0,326.0,4.95,5.57,,47.59359,-54.27349
2018-01-27 16:50:00+00:00,296.0,305.0,4.23,4.85,,47.59359,-54.27349
2018-01-27 17:00:00+00:00,304.0,305.0,4.79,5.4,,47.59359,-54.27349
2018-01-27 17:10:00+00:00,312.0,316.0,4.15,5.04,,47.59359,-54.27349
2018-01-27 17:20:00+00:00,318.0,309.0,3.6,4.24,,47.59359,-54.27349
2018-01-27 17:30:00+00:00,315.0,330.0,3.63,4.27,,47.59359,-54.27349
2018-01-27 17:40:00+00:00,293.0,299.0,5.57,6.57,,47.59359,-54.27349
2018-01-27 17:50:00+00:00,297.0,304.0,4.13,5.08,,47.59359,-54.27349
2018-01-27 18:00:00+00:00,304.0,306.0,3.57,4.71,,47.59359,-54.27349
2018-01-27 18:10:00+00:00,295.0,282.0,1.8,2.15,,47.59359,-54.27349
2018-01-27 18:20:00+00:00,273.0,270.0,3.45,4.24,,47.59359,-54.27349
2018-01-27 18:30:00+00:00,259.0,255.0,2.89,3.27,,47.59359,-54.27349
2018-01-27 18:40:00+00:00,274.0,261.0,3.27,3.82,,47.59359,-54.27349
2018-01-27 18:50:00+00:00,249.0,244.0,2.83,3.73,,47.59359,-54.27349
2018-01-27 19:00:00+00:00,232.0,231.0,4.07,4.82,,47.59359,-54.27349
2018-01-27 19:10:00+00:00,250.0,242.0,2.84,3.51,,47.59359,-54.27349
2018-01-27 19:20:00+00:00,264.0,261.0,4.58,5.99,,47.59359,-54.27349
2018-01-27 19:30:00+00:00,257.0,254.0,3.95,5.68,,47.59359,-54.27349
2018-01-27 19:40:00+00:00,250.0,254.0,4.77,5.87,,47.59359,-54.27349
2018-01-27 19:50:00+00:00,244.0,240.0,4.96,6.33,,47.59359,-54.27349
2018-01-27 20:00:00+00:00,258.0,255.0,5.16,5.93,,47.59359,-54.27349
2018-01-27 20:10:00+00:00,270.0,274.0,5.9,6.94,,47.59359,-54.27349
2018-01-27 20:20:00+00:00,263.0,254.0,5.74,7.01,,47.59359,-54.27349
2018-01-27 20:30:00+00:00,256.0,259.0,5.87,7.07,,47.59359,-54.27349
2018-01-27 20:40:00+00:00,243.0,235.0,4.68,5.69,,47.59359,-54.27349
2018-01-27 20:50:00+00:00,258.0,255.0,6.2,7.5,,47.59359,-54.27349
2018-01-27 21:00:00+00:00,267.0,264.0,6.98,7.87,,47.59359,-54.27349
2018-01-27 21:10:00+00:00,265.0,268.0,7.07,8.13,,47.59359,-54.27349
2018-01-27 21:20:00+00:00,269.0,272.0,7.64,8.2,,47.59359,-54.27349
2018-01-27 21:30:00+00:00,263.0,265.0,8.11,9.58,,47.59359,-54.27349
2018-01-27 21:40:00+00:00,255.0,255.0,6.6,7.41,,47.59359,-54.27349
2018-01-27 21:50:00+00:00,256.0,260.0,7.01,7.84,,47.59359,-54.27349
2018-01-27 22:00:00+00:00,247.0,256.0,7.58,8.77,,47.59359,-54.27349
2018-01-27 22:10:00+00:00,253.0,253.0,7.96,8.6,,47.59359,-54.27349
2018-01-27 22:20:00+00:00,246.0,247.0,9.21,11.22,,47.59359,-54.27349
2018-01-27 22:30:00+00:00,251.0,250.0,8.2,9.72,,47.59359,-54.27349
2018-01-27 22:40:00+00:00,234.0,239.0,7.71,10.87,,47.59359,-54.27349
2018-01-27 22:50:00+00:00,251.0,246.0,8.85,11.46,,47.59359,-54.27349
2018-01-27 23:00:00+00:00,239.0,236.0,7.56,9.37,,47.59359,-54.27349
2018-01-27 23:10:00+00:00,239.0,239.0,7.91,9.13,,47.59359,-54.27349
2018-01-27 23:20:00+00:00,250.0,252.0,7.14,8.9,,47.59359,-54.27349
2018-01-27 23:30:00+00:00,238.0,248.0,8.31,9.48,,47.59359,-54.27349
2018-01-27 23:40:00+00:00,243.0,239.0,8.56,10.36,,47.59359,-54.27349
2018-01-27 23:50:00+00:00,240.0,238.0,8.12,10.47,,47.59359,-54.27349
